Terre Haute, IN

9:05 AM EST on December 07, 2019 (GMT -0500)
Terre Haute International-Hulman

Weather History for KHUF - October, 2019

Change the Weather History Date:

Friday, October 11, 2019

  Actual Average Record
Temperature  
Mean Temperature 54 °F 56 °F  
Max Temperature 69 °F 68 °F 87 °F (1954)
Min Temperature 38 °F 44 °F 29 °F (1979)
Degree Days  
Heating Degree Days 11 10  
Month to date heating degree days 43 92  
Since 1 July heating degree days 45 170  
Cooling Degree Days 0 1  
Month to date cooling degree days 34 11  
Year to date cooling degree days 1298 989  
Growing Degree Days 6 (Base 50)    
Moisture  
Dew Point 55 °F    
Average Humidity 88    
Maximum Humidity 100    
Minimum Humidity 76    
Precipitation  
Precipitation 1.49 in 0.12 in 2.44 in (2001)
Month to date precipitation 1.92 1.24  
Year to date precipitation 39.85 35.94  
Sea Level Pressure  
Sea Level Pressure 29.99 in    
Wind  
Wind Speed 10 mph (SW)    
Max Wind Speed 17 mph    
Max Gust Speed 27 mph    
Visibility 7 miles    
Events Rain    
T = Trace of Precipitation, MM = Missing Value Source: NWS Daily Summary

Daily Weather History Graph

Daily Weather History Graph

Search for Another Location

Airport or City:

Astronomy

Oct. 11, 2019 Rise Set
Actual Time 7:54 AM EDT 7:16 PM EDT
Civil Twilight 7:27 AM EDT 7:43 PM EDT
Nautical Twilight 6:56 AM EDT 8:14 PM EDT
Astronomical Twilight 6:25 AM EDT 8:45 PM EDT
Moon 6:44 PM EDT (10/11) 5:36 AM EDT (10/11)
Length of Visible Light 12h 15m
Length of Day
11h 21m
Waxing Gibbous, 96% of the Moon is Illuminated
Oct 11
Waxing Gibbous
Oct 13
Full
Oct 21
Last Quarter
Oct 27
New
Nov 4
First Quarter

Hourly Weather History & Observations

Time (EDT) Temp. Windchill Dew Point Humidity Pressure Visibility Wind Dir Wind Speed Gust Speed Precip Events Conditions
12:53 AM 70.0 °F - 64.0 °F 81% 29.96 in 10.0 mi SSE 5.8 mph - 0.01 in Rain Light Rain
1:53 AM 68.0 °F - 64.9 °F 90% 29.95 in 9.0 mi SE 4.6 mph - 0.03 in Rain Light Rain
2:53 AM 69.1 °F - 64.9 °F 87% 29.94 in 10.0 mi South 3.5 mph - 0.01 in   Mostly Cloudy
3:53 AM 68.0 °F - 64.9 °F 90% 29.93 in 10.0 mi SSE 6.9 mph - N/A   Overcast
4:53 AM 68.0 °F - 66.0 °F 93% 29.94 in 6.0 mi Calm Calm - 0.04 in Rain Light Rain
5:53 AM 66.9 °F - 66.0 °F 97% 29.94 in 3.0 mi South 5.8 mph - 0.16 in Rain Rain
6:04 AM 66.9 °F - 66.0 °F 97% 29.96 in 2.5 mi South 5.8 mph - 0.07 in Rain Rain
6:11 AM 66.9 °F - 66.0 °F 97% 29.96 in 1.8 mi South 5.8 mph - 0.13 in Rain Heavy Rain
6:16 AM 66.9 °F - 66.0 °F 97% 29.96 in 2.0 mi South 6.9 mph - 0.16 in Rain Heavy Rain
6:23 AM 66.9 °F - 66.0 °F 97% 29.96 in 2.5 mi South 6.9 mph - 0.19 in Rain Rain
6:36 AM 66.9 °F - 64.9 °F 93% 29.96 in 4.0 mi SSW 11.5 mph - 0.25 in Rain Rain
6:46 AM 66.9 °F - 64.9 °F 93% 29.95 in 5.0 mi South 8.1 mph - 0.29 in Rain Rain
6:53 AM 66.9 °F - 66.0 °F 97% 29.94 in 4.0 mi South 8.1 mph - 0.32 in Rain Rain
7:29 AM 66.9 °F - 64.9 °F 93% 29.96 in 3.0 mi SSE 9.2 mph - 0.18 in Rain Rain
7:36 AM 66.9 °F - 64.9 °F 93% 29.95 in 4.0 mi South 11.5 mph - 0.20 in Rain Rain
7:51 AM 66.2 °F - 64.4 °F 94% 29.95 in 4.0 mi South 12.7 mph 21.9 mph 0.27 in Rain Rain
7:53 AM 66.0 °F - 64.9 °F 96% 29.94 in 4.0 mi South 11.5 mph 21.9 mph 0.28 in Rain Rain
8:41 AM 66.0 °F - 64.0 °F 93% 29.95 in 2.0 mi South 5.8 mph - 0.30 in Rain Heavy Rain
8:45 AM 66.0 °F - 64.0 °F 93% 29.95 in 3.0 mi South 6.9 mph - 0.31 in Rain Rain
8:53 AM 66.0 °F - 64.0 °F 93% 29.94 in 3.0 mi South 8.1 mph - 0.36 in Rain Heavy Rain
9:00 AM 66.0 °F - 64.0 °F 93% 29.94 in 1.8 mi SSE 5.8 mph - 0.07 in Rain Heavy Rain
9:08 AM 66.0 °F - 64.0 °F 93% 29.94 in 3.0 mi SSE 6.9 mph - 0.08 in Rain Light Rain
9:20 AM 66.0 °F - 64.9 °F 96% 29.94 in 3.0 mi SSE 6.9 mph - 0.11 in Rain Rain
9:43 AM 66.9 °F - 64.9 °F 93% 29.94 in 5.0 mi South 10.4 mph - 0.13 in Rain Light Rain
9:53 AM 66.9 °F - 64.9 °F 93% 29.92 in 7.0 mi South 11.5 mph - 0.14 in Rain Light Rain
10:17 AM 66.9 °F - 64.9 °F 93% 29.93 in 10.0 mi South 12.7 mph - 0.00 in   Overcast
10:53 AM 68.0 °F - 64.9 °F 90% 29.91 in 10.0 mi South 12.7 mph - 0.01 in   Overcast
11:00 AM 68.0 °F - 64.9 °F 90% 29.93 in 10.0 mi South 12.7 mph - N/A   Overcast
11:45 AM 68.0 °F - 64.9 °F 90% 29.93 in 10.0 mi South 15.0 mph 23.0 mph 0.00 in Rain Light Rain
11:53 AM 68.0 °F - 64.9 °F 90% 29.92 in 7.0 mi South 16.1 mph - 0.00 in Rain Light Rain
12:29 PM 68.0 °F - 64.9 °F 90% 29.93 in 10.0 mi South 13.8 mph - 0.01 in Rain Light Rain
12:53 PM 68.0 °F - 64.9 °F 90% 29.91 in 4.0 mi South 13.8 mph - 0.05 in Rain Light Rain
12:56 PM 68.0 °F - 64.9 °F 90% 29.92 in 4.0 mi South 13.8 mph - 0.00 in Rain Light Rain
1:53 PM 68.0 °F - 64.9 °F 90% 29.90 in 7.0 mi SW 9.2 mph 18.4 mph 0.03 in Rain Light Rain
2:53 PM 55.0 °F - 52.0 °F 89% 29.94 in 10.0 mi WNW 13.8 mph 24.2 mph 0.04 in Rain Light Rain
3:06 PM 54.0 °F - 52.0 °F 93% 29.94 in 10.0 mi WNW 11.5 mph 20.7 mph 0.00 in Rain Light Rain
3:27 PM 53.1 °F - 51.1 °F 93% 29.94 in 6.0 mi WNW 10.4 mph - 0.00 in   Overcast
3:53 PM 52.0 °F - 48.9 °F 89% 29.96 in 10.0 mi NW 11.5 mph 21.9 mph 0.00 in   Overcast
4:53 PM 48.0 °F - 45.0 °F 89% 29.99 in 10.0 mi NW 18.4 mph 27.6 mph 0.00 in   Overcast
5:00 PM 48.0 °F - 45.0 °F 89% 29.99 in 10.0 mi WNW 10.4 mph 24.2 mph 0.00 in Rain Light Rain
5:11 PM 46.9 °F - 45.0 °F 93% 30.01 in 5.0 mi NW 11.5 mph 26.5 mph 0.00 in Rain Light Rain
5:27 PM 46.9 °F - 44.1 °F 90% 30.02 in 4.0 mi NW 15.0 mph 25.3 mph 0.00 in Rain Light Rain
5:53 PM 46.0 °F 40.2 °F 44.1 °F 93% 30.04 in 7.0 mi WNW 12.7 mph 19.6 mph 0.00 in Rain Light Rain
6:12 PM 46.0 °F 40.2 °F 43.0 °F 89% 30.05 in 2.5 mi WNW 12.7 mph 23.0 mph 0.01 in Rain Light Rain
6:24 PM 46.0 °F 40.6 °F 43.0 °F 89% 30.05 in 4.0 mi WNW 11.5 mph 21.9 mph 0.01 in Rain Light Rain
6:31 PM 45.0 °F 39.3 °F 43.0 °F 93% 30.05 in 7.0 mi WNW 11.5 mph 19.6 mph 0.01 in   Overcast
6:51 PM 44.6 °F 39.2 °F 42.8 °F 93% 30.07 in 5.0 mi WNW 10.4 mph 17.3 mph 0.01 in Rain Light Rain
6:53 PM 45.0 °F 39.7 °F 43.0 °F 93% 30.07 in 6.0 mi WNW 10.4 mph 17.3 mph 0.01 in Rain Light Rain
7:41 PM 44.1 °F 39.0 °F 41.0 °F 89% 30.10 in 10.0 mi WNW 9.2 mph - 0.00 in   Overcast
7:53 PM 44.1 °F 39.0 °F 41.0 °F 89% 30.10 in 10.0 mi WNW 9.2 mph - 0.00 in   Overcast
8:02 PM 44.1 °F 38.6 °F 41.0 °F 89% 30.09 in 10.0 mi WNW 10.4 mph - N/A   Overcast
8:09 PM 44.1 °F 39.5 °F 41.0 °F 89% 30.10 in 10.0 mi WNW 8.1 mph - 0.01 in   Overcast
8:53 PM 45.0 °F 40.6 °F 41.0 °F 86% 30.11 in 10.0 mi WNW 8.1 mph - 0.01 in   Overcast
9:03 PM 45.0 °F 41.2 °F 39.9 °F 82% 30.11 in 10.0 mi WNW 6.9 mph 17.3 mph N/A   Overcast
9:13 PM 45.0 °F 40.1 °F 39.9 °F 82% 30.12 in 10.0 mi WNW 9.2 mph - N/A   Overcast
9:42 PM 45.0 °F 39.3 °F 39.9 °F 82% 30.12 in 10.0 mi NW 11.5 mph 18.4 mph N/A   Overcast
9:53 PM 45.0 °F 38.2 °F 37.9 °F 76% 30.13 in 10.0 mi NW 15.0 mph 23.0 mph N/A   Overcast
10:26 PM 43.0 °F 38.8 °F 36.0 °F 76% 30.13 in 10.0 mi WNW 6.9 mph - N/A   Scattered Clouds
10:53 PM 42.1 °F 38.4 °F 36.0 °F 79% 30.14 in 10.0 mi WNW 5.8 mph - N/A   Clear
11:53 PM 39.9 °F 36.7 °F 36.0 °F 86% 30.15 in 10.0 mi West 4.6 mph - N/A   Clear